GW2413 Weather Reports


time (UTC)temp
C
wind
direction
speed
KPH
gust
KPH
rain 1hr
cm
rain 24hr
cm
rain mn
cm
humidity
%
barometer
mb
20260504171131 22 231 1.6 3.2 0.00 0.00 0.00 34 1012.7
20260504170627 22 192 8.0 12.9 0.00 0.00 0.00 34 1012.7
20260504170125 23 243 4.8 8.0 0.00 0.00 0.00 35 1013.0
20260504151010 21 238 3.2 4.8 0.00 0.00 0.00 37 1014.3
20260504150508 21 221 4.8 4.8 0.00 0.00 0.00 35 1014.1
20260504140933 18 167 1.6 1.6 0.00 0.00 0.00 42 1014.1
20260504140430 17 101 0.0 1.6 0.00 0.00 0.00 43 1014.2
20260504130355 14 212 4.8 4.8 0.00 0.00 0.00 49 1015.0
20260504120318 11 127 3.2 3.2 0.00 0.00 0.00 61 1015.1
20260504110242 10 92 0.0 0.0 0.00 0.00 0.00 67 1015.6
20260504100200 10 111 0.0 0.0 0.00 0.00 0.00 61 1015.3
20260504090122 10 156 3.2 3.2 0.00 0.00 0.00 62 1015.3
20260504081552 10 119 0.0 0.0 0.00 0.00 0.00 63 1015.5
20260504081048 10 123 0.0 0.0 0.00 0.00 0.00 62 1015.5
20260504080545 10 118 0.0 0.0 0.00 0.00 0.00 62 1015.5
20260504050358 7 90 0.0 0.0 0.00 0.00 0.00 72 1015.8
20260504045855 7 87 0.0 0.0 0.00 0.00 0.00 73 1015.7
20260504045350 7 85 0.0 0.0 0.00 0.00 0.00 72 1015.7
20260504044847 7 85 0.0 0.0 0.00 0.00 0.00 72 1015.8
20260504044344 7 84 0.0 0.0 0.00 0.00 0.00 72 1015.7
20260504043842 7 84 0.0 0.0 0.00 0.00 0.00 72 1015.8
20260504043338 7 81 0.0 0.0 0.00 0.00 0.00 72 1015.9
20260504042836 7 85 0.0 0.0 0.00 0.00 0.00 73 1015.6
20260504042332 6 85 0.0 0.0 0.00 0.00 0.00 73 1015.8
20260504041828 6 84 0.0 0.0 0.00 0.00 0.00 73 1015.7
20260504041325 6 83 0.0 0.0 0.00 0.00 0.00 74 1015.6
20260504040821 6 87 0.0 0.0 0.00 0.00 0.00 74 1015.6
20260504040319 6 87 0.0 0.0 0.00 0.00 0.00 74 1015.7
20260504035814 6 89 0.0 0.0 0.00 0.00 0.00 73 1015.9
20260504035312 6 89 0.0 0.0 0.00 0.00 0.00 73 1015.8
20260504034809 6 86 0.0 0.0 0.00 0.00 0.00 72 1015.9
20260504034307 6 86 0.0 0.0 0.00 0.00 0.00 71 1015.9
20260504033804 6 86 0.0 0.0 0.00 0.00 0.00 70 1015.8
20260504033301 6 86 0.0 0.0 0.00 0.00 0.00 70 1015.6
20260504032758 7 86 0.0 0.0 0.00 0.00 0.00 69 1015.5
20260504032255 7 86 0.0 0.0 0.00 0.00 0.00 67 1015.5
20260504031752 7 87 0.0 0.0 0.00 0.00 0.00 67 1015.4
20260504031249 7 86 0.0 0.0 0.00 0.00 0.00 66 1015.6
20260504030745 7 86 0.0 0.0 0.00 0.00 0.00 66 1015.7
20260504030242 7 86 0.0 0.0 0.00 0.00 0.00 65 1015.4
20260504025738 7 86 0.0 0.0 0.00 0.00 0.00 65 1015.5
20260504025236 7 86 0.0 0.0 0.00 0.00 0.00 65 1015.5
20260504024732 7 88 0.0 0.0 0.00 0.00 0.00 63 1015.6
20260504024229 7 88 0.0 0.0 0.00 0.00 0.00 63 1015.5
20260504023726 7 87 0.0 0.0 0.00 0.00 0.00 62 1015.4
20260504023222 7 89 0.0 0.0 0.00 0.00 0.00 62 1015.6
20260504022718 7 89 0.0 0.0 0.00 0.00 0.00 61 1015.3
20260504022215 7 88 0.0 0.0 0.00 0.00 0.00 61 1015.4
20260504021712 8 86 0.0 0.0 0.00 0.00 0.00 61 1015.3
20260504021209 8 89 0.0 0.0 0.00 0.00 0.00 60 1015.2
20260504020706 8 93 0.0 0.0 0.00 0.00 0.00 59 1015.4
20260504020202 8 88 0.0 0.0 0.00 0.00 0.00 59 1015.3
20260504015658 8 88 0.0 0.0 0.00 0.00 0.00 58 1015.1
20260504015155 8 88 0.0 0.0 0.00 0.00 0.00 56 1015.0
20260504014650 9 88 0.0 0.0 0.00 0.00 0.00 55 1015.1
20260504014148 9 88 0.0 0.0 0.00 0.00 0.00 53 1014.9
20260504013645 10 89 0.0 0.0 0.00 0.00 0.00 53 1015.0
20260504013142 10 92 0.0 0.0 0.00 0.00 0.00 51 1014.9
20260504012639 10 85 0.0 0.0 0.00 0.00 0.00 50 1014.7
20260504012137 10 88 0.0 0.0 0.00 0.00 0.00 51 1014.9
20260504011633 10 97 0.0 0.0 0.00 0.00 0.00 51 1014.5
20260504011130 10 89 0.0 0.0 0.00 0.00 0.00 50 1014.9
20260504010626 10 90 0.0 0.0 0.00 0.00 0.00 49 1015.0
20260504010122 10 89 0.0 0.0 0.00 0.00 0.00 48 1014.7
20260504005619 10 93 0.0 0.0 0.00 0.00 0.00 48 1015.1
20260504005116 10 97 0.0 0.0 0.00 0.00 0.00 47 1014.9
20260504004614 11 90 0.0 0.0 0.00 0.00 0.00 46 1014.9
20260504004111 11 91 0.0 0.0 0.00 0.00 0.00 45 1014.7
20260504003607 11 91 0.0 0.0 0.00 0.00 0.00 44 1014.5
20260504003104 11 91 0.0 0.0 0.00 0.00 0.00 42 1014.5
20260504002601 12 91 0.0 0.0 0.00 0.00 0.00 41 1014.5
20260504002058 12 92 0.0 0.0 0.00 0.00 0.00 41 1014.7
20260504001556 12 97 0.0 0.0 0.00 0.00 0.00 38 1014.5
20260504001051 13 97 0.0 0.0 0.00 0.00 0.00 38 1014.4
20260504000549 13 107 0.0 0.0 0.00 0.00 0.00 36 1014.3
20260504000047 13 91 0.0 0.0 0.00 0.00 0.00 35 1014.5
20260503235545 14 98 0.0 0.0 0.00 0.00 0.00 34 1014.5
20260503235041 14 83 0.0 0.0 0.00 0.00 0.00 33 1014.4
20260503234539 15 101 0.0 0.0 0.00 0.00 0.00 33 1014.3
20260503234037 15 100 0.0 0.0 0.00 0.00 0.00 32 1014.4
20260503233533 15 93 0.0 0.0 0.00 0.00 0.00 31 1014.4
20260503233029 15 96 0.0 0.0 0.00 0.00 0.00 32 1014.0
20260503232526 15 93 0.0 0.0 0.00 0.00 0.00 31 1014.2
20260503232024 16 87 0.0 1.6 0.00 0.00 0.00 29 1014.0
20260503231522 16 92 0.0 0.0 0.00 0.00 0.00 30 1014.0
20260503231018 16 132 0.0 1.6 0.00 0.00 0.00 30 1014.0
20260503230515 16 205 1.6 3.2 0.00 0.00 0.00 30 1014.0
20260503230012 16 99 0.0 1.6 0.00 0.00 0.00 28 1013.9
20260503225509 16 156 3.2 4.8 0.00 0.00 0.00 28 1014.2
20260503225004 16 87 0.0 0.0 0.00 0.00 0.00 29 1014.2
20260503224502 16 124 0.0 1.6 0.00 0.00 0.00 28 1013.9
20260503223959 16 186 1.6 4.8 0.00 0.00 0.00 29 1014.4
20260503223457 16 53 4.8 9.7 0.00 0.00 0.00 28 1014.2
20260503222952 17 163 4.8 8.0 0.00 0.00 0.00 27 1014.0
20260503222451 16 116 3.2 4.8 0.00 0.00 0.00 28 1014.2
20260503221949 16 93 1.6 1.6 0.00 0.00 0.00 28 1013.9
20260503221447 17 123 1.6 3.2 0.00 0.00 0.00 28 1014.2
20260503220943 17 144 4.8 8.0 0.00 0.00 0.00 27 1014.3
20260503220439 17 277 3.2 4.8 0.00 0.00 0.00 27 1014.2
20260503215937 17 7 3.2 8.0 0.00 0.00 0.00 28 1014.1
20260503215433 17 148 4.8 4.8 0.00 0.00 0.00 28 1014.1
20260503214931 17 185 3.2 3.2 0.00 0.00 0.00 28 1014.2
20260503214429 17 172 3.2 4.8 0.00 0.00 0.00 28 1014.4
20260503213926 16 105 3.2 3.2 0.00 0.00 0.00 29 1014.2
20260503213424 17 49 4.8 8.0 0.00 0.00 0.00 27 1014.3
20260503212920 17 345 4.8 4.8 0.00 0.00 0.00 27 1014.5
20260503212418 17 63 0.0 0.0 0.00 0.00 0.00 29 1014.3
20260503211915 17 109 0.0 0.0 0.00 0.00 0.00 29 1014.2
20260503211412 17 80 1.6 1.6 0.00 0.00 0.00 27 1014.3
20260503210907 17 57 0.0 0.0 0.00 0.00 0.00 28 1014.3
20260503210405 17 226 4.8 8.0 0.00 0.00 0.00 27 1014.2
20260503205859 17 22 4.8 8.0 0.00 0.00 0.00 27 1014.6
20260503205356 17 218 4.8 8.0 0.00 0.00 0.00 27 1014.4
20260503204852 17 162 3.2 4.8 0.00 0.00 0.00 29 1014.4
20260503204349 17 240 4.8 8.0 0.00 0.00 0.00 27 1014.3
20260503203847 17 144 1.6 1.6 0.00 0.00 0.00 28 1014.3
20260503203344 17 259 8.0 12.9 0.00 0.00 0.00 27 1014.4
20260503202841 17 200 3.2 3.2 0.00 0.00 0.00 28 1014.5
20260503202339 17 90 1.6 3.2 0.00 0.00 0.00 29 1014.6
20260503201838 17 242 4.8 4.8 0.00 0.00 0.00 29 1014.7
20260503201334 17 237 1.6 3.2 0.00 0.00 0.00 28 1014.7
20260503200832 18 275 3.2 3.2 0.00 0.00 0.00 28 1014.9
20260503200327 17 243 6.4 11.3 0.00 0.00 0.00 30 1015.0
20260503195825 17 236 3.2 4.8 0.00 0.00 0.00 29 1014.8
20260503195321 17 252 6.4 11.3 0.00 0.00 0.00 29 1015.1
20260503194819 17 359 4.8 9.7 0.00 0.00 0.00 29 1015.4
20260503194314 17 44 3.2 3.2 0.00 0.00 0.00 29 1015.2
20260503193810 17 246 4.8 4.8 0.00 0.00 0.00 30 1015.3
20260503193307 17 284 3.2 8.0 0.00 0.00 0.00 30 1015.3
20260503192803 16 156 4.8 4.8 0.00 0.00 0.00 31 1015.2
20260503192258 15 59 1.6 3.2 0.00 0.00 0.00 32 1015.4
20260503191755 16 156 0.0 1.6 0.00 0.00 0.00 32 1015.5
20260503191252 16 195 9.7 22.5 0.00 0.00 0.00 30 1015.6
20260503190748 16 232 9.7 11.3 0.00 0.00 0.00 29 1015.6
20260503190245 16 262 6.4 11.3 0.00 0.00 0.00 30 1015.7
20260503185743 16 68 3.2 4.8 0.00 0.00 0.00 32 1015.8
20260503185238 15 227 4.8 8.0 0.00 0.00 0.00 32 1016.0
20260503184733 16 259 9.7 16.1 0.00 0.00 0.00 31 1015.8
20260503184230 15 224 4.8 8.0 0.00 0.00 0.00 33 1015.8
20260503183726 15 259 1.6 4.8 0.00 0.00 0.00 33 1016.3
20260503183223 15 240 3.2 4.8 0.00 0.00 0.00 33 1016.2
20260503182721 15 299 4.8 4.8 0.00 0.00 0.00 32 1016.0
20260503182220 15 331 4.8 9.7 0.00 0.00 0.00 32 1016.3
20260503181716 15 87 4.8 8.0 0.00 0.00 0.00 34 1016.1
20260503181213 15 63 0.0 0.0 0.00 0.00 0.00 35 1016.2
20260503180709 15 253 4.8 9.7 0.00 0.00 0.00 34 1016.2
20260503180208 15 200 4.8 8.0 0.00 0.00 0.00 33 1016.3
20260503175704 15 220 8.0 12.9 0.00 0.00 0.00 33 1016.1
20260503175202 15 219 6.4 11.3 0.00 0.00 0.00 32 1016.4
20260503174658 15 91 3.2 4.8 0.00 0.00 0.00 33 1016.5
20260503174155 15 72 4.8 8.0 0.00 0.00 0.00 33 1016.4
20260503173650 16 187 3.2 3.2 0.00 0.00 0.00 33 1016.5
20260503173147 15 356 4.8 4.8 0.00 0.00 0.00 33 1016.2
20260503172644 15 328 4.8 4.8 0.00 0.00 0.00 34 1016.6
20260503172141 14 155 1.6 3.2 0.00 0.00 0.00 35 1016.5
20260503171637 14 81 1.6 4.8 0.00 0.00 0.00 34 1016.4